QPF
0.00 0.00 0.00 0.00 0.00 0.00 0.00 0.00 0.00 0.00 0.00 0.00 0.00 0.00 0.00 0.00 0.00 0.00 0.00 0.02 0.02 0.01
0.00 0.00 0.00 0.00 0.00 0.00 0.00 0.00 0.00 0.00 0.00 0.00 0.00 0.00 0.00 0.00 0.00 0.00 0.00 0.00 0.00 0.00
0.00 0.00 0.00 0.00 0.00 0.00 0.00 0.00 0.00 0.00 0.00 0.00 0.00 0.00 0.00 0.00 0.00 0.00 0.00 0.00 0.00 0.00
0.00 0.00 0.00 0.00 0.00 0.00 0.00 0.00 0.00 0.00 0.00 0.00 0.00 0.00 0.03 0.02 0.00 0.00 0.03 0.04 0.02 0.00
0.00 0.00 0.00 0.00 0.00 0.00 0.00 0.00 0.00 0.00 0.00 0.00 0.00 0.01 0.01 0.01 0.04 0.01 0.09 0.14 0.15 0.08
0.00 0.00 0.00 0.00 0.00 0.00 0.00 0.00 0.00 0.00 0.00 0.00 0.00 0.00 0.00 0.01 0.15 0.11 0.09 0.11 0.12 0.07
0.00 0.00 0.00 0.00 0.00 0.00 0.00 0.00 0.00 0.00 0.00 0.00 0.00 0.00 0.00 0.00 0.08 0.11 0.04 0.04 0.05 0.10
0.00 0.00 0.00 0.00 0.00 0.00 0.00 0.00 0.00 0.00 0.00 0.00 0.00 0.00 0.00 0.02 0.08 0.10 0.06 0.06 0.08 0.09
0.00 0.01 0.01 0.01 0.01 0.00 0.00 0.00 0.00 0.00 0.00 0.00 0.00 0.00 0.01 0.07 0.09 0.11 0.09 0.18 0.07 0.01
0.06 0.01 0.06 0.10 0.07 0.02 0.05 0.06 0.02 0.00 0.03 0.02 0.01 0.02 0.01 0.02 0.06 0.05 0.06 0.03 0.03 0.00
0.01 0.01 0.01 0.10 0.25 0.32 0.34 0.23 0.11 0.09 0.08 0.14 0.07 0.07 0.06 0.16 0.17 0.09 0.08 0.02 0.05 0.08
0.02 0.00 0.01 0.08 0.13 0.15 0.13 0.12 0.10 0.12 0.06 0.06 0.04 0.09 0.04 0.07 0.08 0.08 0.05 0.04 0.05 0.06
0.00 0.00 0.00 0.00 0.01 0.03 0.04 0.07 0.05 0.02 0.00 0.00 0.02 0.07 0.06 0.10 0.08 0.08 0.06 0.03 0.03 0.05
0.00 0.00 0.00 0.00 0.00 0.00 0.00 0.00 0.00 0.00 0.00 0.00 0.00 0.00 0.02 0.06 0.05 0.07 0.05 0.02 0.02 0.05
MSLP
1015.88 1016.24 1016.51 1016.61 1016.65 1016.64 1016.75 1016.71 1016.56 1016.94 1017.19 1017.34 1017.51 1017.65 1017.96 1018.45 1018.80 1019.05 1019.18 1019.38 1019.56 1019.65
1015.57 1015.88 1016.04 1016.09 1016.18 1016.25 1016.39 1016.42 1016.49 1016.54 1017.07 1017.09 1017.34 1017.51 1017.76 1018.25 1018.45 1018.61 1018.85 1019.04 1019.41 1019.60
1014.93 1015.22 1015.42 1015.71 1015.84 1015.92 1016.00 1016.19 1016.28 1016.45 1016.73 1016.98 1017.23 1017.41 1017.88 1018.09 1018.27 1018.44 1018.57 1018.98 1019.48 1019.88
1014.46 1014.81 1015.16 1015.47 1015.51 1015.58 1015.63 1015.85 1016.10 1016.19 1016.39 1016.52 1016.68 1017.11 1017.66 1017.86 1018.01 1018.22 1018.33 1019.20 1019.89 1020.30
1014.26 1014.42 1014.67 1014.99 1015.07 1015.23 1015.45 1015.71 1015.75 1015.70 1015.78 1015.91 1016.19 1016.56 1016.95 1017.39 1017.79 1018.12 1018.39 1019.45 1019.37 1019.74
1013.86 1014.18 1014.18 1014.09 1014.13 1014.38 1014.87 1015.25 1015.47 1015.52 1015.51 1015.61 1015.88 1016.08 1016.35 1016.83 1017.41 1017.38 1017.69 1018.38 1018.48 1018.41
1013.79 1013.96 1014.04 1014.10 1014.16 1014.31 1014.43 1014.51 1014.73 1014.85 1014.96 1015.13 1015.44 1015.71 1015.94 1016.31 1016.50 1016.71 1016.97 1017.54 1017.57 1017.79
1013.06 1013.53 1013.87 1013.96 1013.96 1013.94 1014.09 1014.19 1014.20 1014.14 1014.28 1014.37 1014.17 1014.37 1014.93 1015.28 1015.53 1016.00 1016.27 1016.48 1017.14 1017.42
1013.02 1012.99 1013.48 1013.82 1013.75 1013.87 1013.90 1013.80 1013.99 1014.09 1014.16 1014.32 1014.29 1013.92 1013.97 1014.33 1014.57 1014.87 1015.28 1015.63 1015.90 1016.55
1014.58 1014.02 1013.57 1013.59 1013.93 1013.44 1013.25 1013.25 1013.51 1013.71 1013.55 1013.68 1013.57 1013.65 1013.66 1013.78 1014.23 1014.64 1014.83 1014.97 1015.27 1015.32
1014.05 1015.40 1013.94 1013.45 1013.34 1013.58 1012.98 1012.99 1013.34 1012.95 1012.68 1012.78 1012.97 1013.04 1013.07 1012.92 1013.44 1014.03 1014.25 1013.96 1013.72 1013.65
1013.94 1014.17 1013.60 1013.28 1014.15 1013.87 1013.66 1013.43 1013.09 1013.66 1013.01 1012.71 1012.59 1012.43 1012.32 1012.38 1012.85 1013.14 1013.15 1013.48 1014.00 1014.27
1014.13 1014.01 1013.72 1014.18 1014.25 1013.95 1013.77 1013.78 1013.80 1014.07 1013.94 1013.79 1013.58 1013.52 1013.54 1013.40 1013.02 1013.23 1013.65 1013.76 1013.79 1014.19
1013.87 1013.83 1013.57 1013.58 1013.67 1013.40 1013.45 1013.63 1013.72 1013.90 1013.84 1013.72 1013.74 1013.55 1013.52 1013.34 1013.25 1013.51 1013.75 1013.76 1013.80 1013.84
Thickness
5803 5799 5798 5798 5799 5800 5798 5798 5798 5796 5793 5792 5789 5787 5783 5779 5776 5774 5771 5768 5765 5764
5804 5802 5801 5801 5802 5802 5801 5800 5799 5798 5794 5793 5791 5789 5786 5781 5779 5778 5775 5770 5766 5763
5808 5807 5806 5804 5802 5803 5804 5801 5799 5798 5797 5794 5791 5788 5786 5783 5782 5778 5776 5770 5763 5757
5809 5807 5805 5803 5803 5803 5805 5803 5800 5798 5797 5797 5796 5792 5785 5784 5783 5779 5777 5767 5757 5752
5807 5808 5807 5804 5804 5803 5801 5801 5801 5802 5803 5804 5800 5796 5791 5785 5783 5778 5772 5761 5759 5752
5805 5804 5807 5810 5813 5810 5804 5801 5800 5800 5800 5801 5798 5798 5796 5789 5784 5783 5777 5767 5764 5765
5803 5802 5803 5805 5807 5807 5806 5806 5805 5805 5805 5803 5799 5795 5792 5788 5788 5786 5782 5774 5770 5766
5807 5803 5801 5801 5801 5800 5800 5800 5803 5806 5804 5804 5809 5805 5795 5793 5793 5787 5785 5782 5774 5770
5800 5802 5799 5795 5796 5797 5793 5794 5793 5797 5797 5796 5796 5800 5801 5797 5794 5792 5789 5785 5780 5774
5770 5775 5786 5790 5786 5791 5790 5790 5787 5789 5793 5793 5795 5795 5793 5793 5788 5786 5786 5783 5779 5774
5766 5752 5776 5785 5783 5779 5777 5776 5775 5784 5790 5791 5790 5790 5790 5791 5786 5781 5779 5780 5783 5781
5769 5763 5770 5773 5766 5769 5771 5770 5773 5768 5776 5780 5781 5784 5785 5785 5782 5778 5778 5775 5769 5765
5757 5757 5758 5757 5759 5762 5763 5759 5760 5757 5760 5761 5764 5765 5766 5768 5772 5770 5766 5765 5763 5754
5750 5750 5754 5755 5756 5760 5758 5756 5756 5753 5753 5754 5754 5755 5757 5761 5761 5757 5755 5754 5754 5751